Date,TemperatureHighF,TemperatureAvgF,TemperatureLowF,DewpointHighF,DewpointAvgF,DewpointLowF,HumidityHigh,HumidityAvg,HumidityLow,PressureMaxIn,PressureMinIn,WindSpeedMaxMPH,WindSpeedAvgMPH,GustSpeedMaxMPH,PrecipitationSumIn
2013-1-3,84.8,80.6,77.8,76.4,75.0,73.7,92,84,72,30.05,29.89,7,3,13,0.00
2013-1-4,84.6,80.7,78.3,75.8,74.3,73.4,87,81,73,30.05,29.94,10,5,18,0.00
2013-1-5,83.9,81.0,76.0,76.8,75.9,73.3,94,85,77,30.00,29.93,14,7,20,0.00
2013-1-6,85.1,79.6,74.4,77.0,75.1,72.9,96,87,76,30.01,29.90,13,7,28,0.00
2013-1-7,81.8,79.9,76.2,76.8,75.3,74.0,93,86,82,29.96,29.85,12,7,21,0.00
2013-1-8,83.6,80.3,77.4,76.7,75.5,73.2,95,85,80,29.94,29.84,15,8,24,0.03
2013-1-9,85.3,83.0,81.2,78.5,77.6,76.4,89,84,79,29.95,29.87,18,11,28,0.00
2013-1-10,85.8,82.1,78.1,78.1,76.4,74.1,92,83,74,29.99,29.86,27,14,27,0.02
2013-1-11,84.3,81.5,77.6,76.7,75.1,73.4,91,81,73,29.98,29.88,23,13,23,0.01
2013-1-12,83.8,80.6,78.6,75.9,74.1,71.5,86,81,71,29.94,29.87,25,11,25,0.00
2013-1-13,80.7,80.2,79.8,74.6,72.8,70.9,83,78,73,29.89,29.85,22,15,22,0.00
2013-1-14,85.5,82.3,80.3,76.3,74.0,70.8,85,76,64,29.98,29.90,20,9,20,0.00
2013-1-15,84.7,81.1,79.3,75.9,74.4,72.5,86,80,71,29.95,29.86,22,11,22,0.00
2013-1-16,85.2,80.7,77.0,74.5,73.1,71.6,86,78,66,29.98,29.86,20,8,20,0.00
2013-1-17,85.5,78.5,73.6,74.2,71.2,67.9,91,79,58,30.10,29.94,20,4,20,0.01
2013-1-18,75.2,69.5,66.9,71.0,67.7,65.7,97,94,85,30.20,30.07,24,14,24,1.83
2013-1-19,69.4,67.4,66.1,68.2,65.9,64.2,97,95,92,30.20,30.07,24,14,24,0.89
2013-1-20,72.3,70.0,68.8,71.1,68.7,67.3,97,96,91,30.12,29.98,22,13,22,1.83
2013-1-21,74.8,72.3,70.3,71.5,70.6,69.2,97,94,88,30.08,29.99,20,9,20,1.40
2013-1-22,78.7,75.1,71.8,73.5,71.7,69.8,96,90,80,30.10,29.99,16,6,18,0.00
2013-1-23,80.6,75.9,73.0,75.2,72.7,70.9,96,90,78,30.13,30.03,12,3,12,1.81
2013-1-24,79.0,74.5,71.6,72.8,71.0,68.6,95,89,81,30.13,30.05,22,7,22,0.47
2013-1-25,76.0,73.7,71.0,72.5,71.0,69.3,96,91,84,30.12,30.02,20,6,20,0.52
2013-1-26,78.8,74.8,71.9,72.9,71.8,70.4,97,90,80,30.10,29.99,20,6,20,0.51
2013-1-27,83.8,77.5,71.9,75.6,73.3,70.6,98,87,71,30.08,29.99,12,3,12,0.01
2013-1-28,84.1,80.3,77.0,76.4,74.9,73.3,91,84,74,30.08,29.96,22,9,22,0.00
2013-1-29,84.3,80.8,78.7,76.5,74.4,70.9,91,81,67,30.01,29.88,23,13,23,0.00
2013-1-30,87.5,80.7,75.8,76.9,74.4,71.1,96,82,67,29.92,29.81,20,6,20,0.00
2013-1-31,84.7,79.1,75.3,76.7,74.7,72.0,97,87,74,30.06,29.89,14,5,14,0.00
2013-2-1,84.6,79.3,73.5,75.9,73.6,70.4,94,83,73,30.09,29.99,16,6,16,0.21
2013-2-2,83.7,78.9,72.7,75.4,73.4,69.9,93,83,73,30.06,29.95,18,7,18,0.21
2013-2-3,83.4,77.6,73.7,75.6,73.1,70.9,93,86,74,30.06,29.95,12,3,12,0.44
2013-2-4,84.1,77.0,73.2,74.9,72.3,69.3,94,86,71,30.02,29.89,20,3,20,0.34
2013-2-5,87.7,79.8,74.4,76.0,73.6,69.7,92,82,61,29.97,29.86,18,6,18,0.00
2013-2-6,88.3,81.6,77.0,77.7,75.4,72.1,91,82,67,29.99,29.88,22,8,22,0.00
2013-2-7,89.8,81.7,77.9,78.2,75.8,72.7,91,83,68,29.95,29.85,22,7,22,0.00
2013-2-8,88.8,81.3,76.7,78.4,75.5,72.7,95,83,66,30.00,29.85,14,5,14,0.00
2013-2-9,79.6,79.1,78.7,74.5,73.5,72.7,85,83,81,29.98,29.95,14,8,14,0.00
2013-5-29,83.1,82.4,81.6,79.5,78.2,76.6,89,87,83,29.85,29.81,16,3,16,0.00
2013-5-30,88.0,84.2,81.2,79.7,78.4,75.7,89,83,72,29.83,29.70,22,6,22,0.00
2013-5-31,92.7,85.4,82.1,82.3,80.0,77.9,92,84,65,29.81,29.73,17,4,17,0.00
2013-6-1,94.0,85.6,79.7,82.0,79.7,77.2,93,83,68,29.82,29.71,14,2,14,0.00
2013-6-2,83.6,82.7,82.1,80.9,80.4,80.1,94,93,91,29.77,29.73,6,1,7,0.00
2013-6-3,88.2,82.6,79.2,80.6,77.0,74.7,93,84,65,29.85,29.74,8,2,21,0.00
2013-6-4,87.9,83.5,79.2,79.6,78.3,76.3,92,85,74,29.84,29.75,5,1,11,0.00
2013-6-5,91.4,82.1,78.3,80.4,77.2,73.7,93,85,67,29.81,29.72,24,3,24,0.02
2013-6-6,91.2,84.9,79.6,81.1,78.7,75.7,90,82,70,29.81,29.71,11,3,11,0.00
2013-6-10,88.4,85.3,83.1,80.6,78.5,76.1,87,80,73,29.90,29.81,11,9,24,0.00
2013-6-11,89.0,85.4,83.1,79.6,78.5,77.1,87,80,70,29.98,29.88,11,9,23,0.00
2013-6-12,89.2,85.1,80.8,79.5,78.4,76.2,86,80,73,29.98,29.90,9,8,24,0.03
2013-6-13,89.3,84.5,78.9,79.6,78.2,76.0,91,82,72,29.95,29.88,10,7,22,0.08
2013-6-14,88.5,84.5,81.5,78.8,77.8,76.7,88,81,71,29.92,29.85,8,6,22,0.00
2013-6-15,88.2,84.3,78.0,80.2,77.7,75.5,94,81,71,29.95,29.85,12,7,31,0.34
2013-6-16,82.8,78.7,73.5,78.6,75.8,72.0,97,91,83,29.96,29.85,24,3,30,1.62
2013-6-17,84.6,78.4,74.7,79.1,76.4,73.2,97,94,83,29.89,29.75,29,7,30,2.24
2013-6-18,89.7,82.3,76.8,80.1,77.7,75.2,96,86,70,29.89,29.82,22,4,22,0.02
2013-6-19,87.8,84.0,81.1,80.2,78.2,74.9,90,83,74,29.87,29.76,26,10,26,0.00
2013-6-20,87.3,83.6,80.6,80.0,78.4,75.3,90,84,77,29.92,29.82,25,9,25,0.00
2013-6-21,88.0,84.3,81.2,80.3,78.3,76.7,90,83,72,29.94,29.85,24,8,24,0.00
2013-6-22,87.4,83.7,81.6,79.4,77.7,75.5,89,82,75,29.94,29.86,24,8,24,0.00
2013-6-23,82.8,82.4,82.0,77.5,77.2,76.7,86,84,83,29.93,29.88,23,11,24,0.00
2013-6-26,89.7,84.3,78.3,78.4,76.9,74.7,90,79,62,29.97,29.90,8,4,16,0.00
2013-6-27,88.9,84.3,81.7,79.1,77.7,76.1,89,81,66,29.95,29.85,8,5,17,0.00
2013-6-28,89.3,84.6,81.5,79.3,77.8,76.7,88,81,68,29.92,29.81,7,5,18,0.00
2013-6-29,89.5,84.5,80.5,78.7,77.3,75.4,87,79,68,29.88,29.79,7,3,13,0.00
2013-6-30,89.9,84.6,79.6,79.1,77.6,75.1,93,80,67,29.85,29.78,7,2,18,0.14
2013-7-1,87.8,82.2,75.3,78.9,77.5,73.5,95,86,73,29.89,29.80,5,2,13,2.41
2013-7-2,88.2,83.1,79.9,79.9,78.6,77.3,94,87,74,29.92,29.82,14,2,14,0.01
2013-7-3,87.8,84.1,80.3,79.6,78.7,77.7,92,84,74,29.92,29.85,6,2,6,0.00
2013-7-5,88.6,85.1,82.3,80.8,78.9,77.3,90,82,72,29.94,29.80,10,6,24,0.00
2013-7-6,88.4,85.1,82.8,78.9,77.1,75.2,83,77,70,29.91,29.81,13,9,26,0.00
2013-7-7,88.3,84.8,82.3,77.5,76.3,74.8,81,76,66,29.92,29.84,12,9,28,0.00
2013-7-8,87.7,83.9,82.1,78.1,77.1,76.1,85,80,73,30.00,29.88,10,7,21,0.00
2013-7-9,87.6,84.0,81.6,78.9,77.5,74.7,87,81,74,30.01,29.93,11,6,26,0.00
2013-7-10,85.5,81.6,75.1,78.4,77.1,73.3,96,86,77,30.01,29.88,5,3,16,1.81
2013-7-11,87.8,83.5,80.1,78.8,77.8,75.1,89,83,74,29.96,29.83,16,4,16,0.00
2013-7-12,89.2,84.2,79.9,79.6,77.8,75.5,90,81,71,29.91,29.80,17,3,18,0.22
2013-7-13,86.8,82.5,79.1,79.0,77.5,76.1,93,85,75,29.92,29.83,9,2,9,0.01
2013-7-14,89.8,83.6,77.7,79.7,77.5,75.0,94,82,69,29.91,29.83,22,4,22,0.00
2013-7-15,89.0,85.0,82.8,78.2,77.0,74.8,84,77,65,29.90,29.80,21,8,22,0.00
2013-7-16,83.5,82.8,82.4,77.2,76.7,75.8,83,82,80,29.88,29.85,19,6,20,0.00
2013-7-17,88.8,85.3,82.5,79.8,78.9,77.5,86,81,73,29.94,29.86,11,7,21,0.00
2013-7-18,89.5,85.4,82.0,80.1,78.4,76.9,89,80,70,29.97,29.87,21,7,22,0.00
2013-7-19,89.0,85.0,82.4,79.8,77.7,75.9,87,79,69,29.96,29.86,18,7,19,0.00
2013-7-20,89.0,85.0,82.5,80.4,78.6,76.4,87,82,74,29.94,29.82,26,9,26,0.00
2013-7-21,89.0,85.2,82.9,79.3,77.8,76.1,85,79,71,29.96,29.86,27,10,27,0.00
2013-7-22,88.3,84.4,81.4,79.7,77.4,74.1,86,80,72,30.00,29.90,23,8,23,0.00
2013-7-23,88.0,84.6,82.3,79.3,78.0,75.3,86,81,73,29.97,29.86,23,8,23,0.00
2013-7-24,86.1,83.4,81.9,80.0,78.5,76.7,90,85,77,29.94,29.85,18,5,18,0.00
2013-7-25,83.3,83.0,82.8,79.0,78.7,78.5,87,87,87,29.91,29.90,19,9,19,0.00
2013-7-26,89.2,85.1,82.7,79.8,78.5,77.3,88,81,72,30.02,29.96,10,6,19,0.00
2013-7-27,89.8,84.8,82.4,79.4,78.1,76.2,87,81,67,30.00,29.90,8,5,16,0.00
2013-7-28,89.3,85.7,82.5,79.0,77.4,75.3,84,77,66,29.98,29.88,20,7,20,0.00
2013-7-29,89.0,84.5,81.9,79.3,77.3,74.9,86,79,71,30.04,29.90,20,7,21,0.00
2013-7-30,89.8,85.1,82.0,79.8,77.6,74.8,86,79,67,30.03,29.92,19,6,19,0.00
2013-7-31,86.0,82.2,80.5,78.8,77.4,76.6,89,85,79,30.00,29.93,12,2,12,0.00
2013-8-4,88.6,85.2,81.5,79.9,78.4,76.6,87,80,72,29.99,29.87,9,8,23,0.00
2013-8-5,89.6,85.6,83.2,80.4,79.2,77.1,86,82,73,29.98,29.88,10,7,22,0.00
2013-8-6,90.7,85.5,82.8,79.8,77.8,74.9,87,78,63,29.98,29.90,9,5,19,0.00
2013-8-7,90.2,85.2,81.7,78.9,77.3,74.1,87,78,64,29.95,29.85,6,2,13,0.00
2013-8-8,92.1,85.6,80.9,78.6,77.0,72.9,89,76,55,29.90,29.81,6,3,13,0.00
2013-8-9,89.9,85.2,81.2,79.8,77.9,75.9,85,79,69,29.88,29.80,7,4,14,0.00
2013-8-10,91.8,86.8,82.9,80.1,78.2,76.2,89,76,66,29.92,29.82,17,5,17,0.00
2013-8-11,89.8,85.5,83.4,80.0,77.9,76.5,84,78,68,29.93,29.82,22,6,22,0.00
2013-8-12,88.0,84.4,82.4,78.8,77.3,74.5,87,80,69,29.94,29.83,21,6,21,0.00
2013-8-13,90.0,82.2,75.4,78.6,76.3,71.4,92,83,68,29.94,29.81,20,2,20,0.52
2013-8-14,86.9,81.3,77.2,78.8,76.7,74.3,94,86,74,29.88,29.78,17,3,17,0.53
2013-8-15,81.0,79.6,79.0,77.2,76.5,75.9,91,90,88,29.85,29.80,5,1,5,0.00
2013-8-16,89.7,85.4,80.1,80.3,79.0,76.0,91,81,71,29.90,29.80,20,5,20,0.00
2013-8-17,90.8,85.5,82.9,79.3,77.5,73.7,86,78,62,29.91,29.82,20,6,20,0.00
2013-8-18,89.6,85.6,83.2,78.4,76.8,74.8,82,75,65,29.93,29.85,10,7,24,0.00
2013-8-19,88.8,85.5,82.8,79.3,78.0,76.7,87,79,68,29.90,29.80,8,6,19,0.00
2013-8-20,89.5,85.7,83.6,79.5,78.3,77.2,86,79,69,29.92,29.81,10,7,21,0.01
2013-8-21,90.0,85.4,79.8,80.6,78.9,75.6,92,81,70,29.93,29.83,9,5,21,0.28
2013-8-22,91.2,84.1,78.5,79.5,77.7,75.3,93,82,66,29.92,29.79,7,2,18,0.15
2013-8-23,85.1,78.0,75.8,78.4,75.8,73.9,96,93,78,29.85,29.75,23,3,23,2.34
2013-8-24,91.0,82.4,76.4,80.1,77.8,74.9,96,87,67,29.91,29.79,21,3,21,0.56
2013-8-25,89.3,85.2,82.4,79.9,78.2,75.9,89,80,72,29.94,29.87,24,7,24,0.00
2013-8-26,89.2,85.7,83.0,80.1,77.9,74.9,84,78,67,29.98,29.87,18,6,22,0.00
2013-8-27,89.2,84.1,80.5,78.7,76.6,73.8,86,78,68,29.94,29.84,21,5,21,0.00
2013-8-28,87.5,83.5,80.6,77.4,75.8,73.3,85,78,65,29.95,29.84,19,5,20,0.00
2013-8-29,88.6,82.3,76.1,78.4,76.7,74.4,97,84,70,29.96,29.85,10,4,26,3.03
2013-8-30,89.5,83.0,77.7,79.6,77.7,73.2,97,84,68,29.91,29.83,22,5,22,0.07
2013-8-31,92.5,84.4,77.3,80.0,77.6,73.4,93,80,65,29.91,29.80,21,4,22,0.49
2013-9-1,92.3,85.2,78.5,80.2,77.9,75.4,91,79,65,29.89,29.76,17,2,17,0.00
2013-9-2,88.9,83.3,78.8,79.5,77.1,74.8,90,82,70,29.94,29.81,21,3,21,0.03
2013-9-3,86.8,82.2,80.0,79.1,77.7,75.3,92,86,71,29.93,29.81,13,2,13,0.00
2013-9-4,91.7,84.1,79.4,80.4,78.1,75.8,93,83,66,29.92,29.80,13,2,13,0.00
2013-9-5,91.9,85.5,81.8,79.4,78.0,75.7,86,79,67,29.93,29.83,9,4,18,0.00
2013-9-6,91.1,85.5,81.3,80.1,78.6,77.1,87,80,69,29.92,29.79,6,3,14,0.00
2013-9-7,89.0,84.6,75.9,79.4,77.7,73.7,93,80,70,29.90,29.79,8,3,21,0.90
2013-9-8,90.2,81.6,76.5,80.7,77.3,74.9,96,87,71,29.86,29.75,6,2,14,1.33
2013-9-9,89.3,82.1,75.4,78.8,76.6,74.2,96,84,70,29.86,29.76,4,1,10,0.00
2013-9-10,86.5,82.5,79.5,79.8,78.2,76.4,92,87,78,29.85,29.77,6,2,13,0.09
2013-9-11,90.3,85.3,80.6,80.5,78.3,76.0,92,80,69,29.84,29.72,17,2,17,0.00
2013-9-12,91.7,84.1,79.1,80.2,78.0,76.2,93,82,67,29.81,29.69,13,2,13,0.00
2013-9-13,85.7,81.7,80.3,78.4,77.2,76.0,91,86,79,29.74,29.70,6,1,6,0.00
2013-9-14,89.3,84.9,80.5,79.6,78.2,76.5,93,81,70,29.80,29.68,5,2,13,0.00
2013-9-15,88.1,83.3,79.6,80.2,78.7,76.9,93,86,76,29.84,29.73,5,2,13,0.04
2013-9-16,87.7,83.4,79.6,80.2,78.7,77.1,94,86,75,29.84,29.73,4,2,10,0.07
2013-9-17,84.6,82.9,79.7,80.6,78.8,77.5,94,88,83,29.83,29.69,16,4,16,0.06
2013-9-18,88.3,84.2,80.3,80.8,79.2,77.4,92,85,76,29.82,29.72,12,3,13,0.17
2013-9-25,92.1,87.2,83.0,82.4,80.6,79.4,90,81,69,29.84,29.74,9,4,21,0.00
2013-9-26,91.5,86.8,84.5,82.0,79.6,77.6,86,80,68,29.86,29.77,10,6,22,0.00
2013-9-27,92.7,86.6,83.0,79.8,78.7,76.6,87,78,66,29.90,29.80,7,4,15,0.00
2013-9-28,90.4,86.1,83.7,79.5,78.2,76.5,84,78,66,29.93,29.81,9,6,20,0.00
2013-9-29,91.8,85.6,82.9,79.5,77.8,76.0,84,78,67,29.93,29.82,6,2,14,0.00
2013-9-30,93.6,86.1,82.6,78.2,76.1,73.4,82,73,57,29.91,29.80,5,3,12,0.00
2013-10-1,91.4,84.9,79.3,78.9,76.5,74.3,90,76,64,29.91,29.80,14,2,14,0.00
2013-10-2,89.1,82.9,78.3,79.1,77.4,75.4,94,84,69,29.88,29.77,14,2,14,0.38
2013-10-3,91.5,85.3,80.7,80.3,78.3,76.5,90,80,68,29.90,29.77,16,3,16,0.00
2013-10-4,89.1,85.8,83.3,79.6,78.6,76.2,85,79,66,29.91,29.81,8,5,17,0.00
2013-10-5,89.6,86.0,83.4,80.5,79.2,77.8,86,80,71,29.88,29.78,8,6,19,0.00
2013-10-6,91.8,85.2,76.7,80.3,78.8,74.5,94,82,67,29.89,29.77,10,3,24,0.17
2013-10-7,87.9,83.2,75.3,80.0,78.0,71.8,93,85,71,29.92,29.81,9,3,22,0.14
2013-10-8,88.3,80.8,76.7,79.3,76.9,75.2,96,88,74,29.93,29.82,14,2,31,1.02
2013-10-9,90.1,85.1,81.8,79.3,78.2,77.4,89,80,67,29.95,29.84,8,4,19,0.00
2013-10-10,90.4,84.1,80.1,80.2,78.0,74.7,88,82,70,29.94,29.82,18,4,18,0.00
2013-10-11,89.8,84.8,81.0,79.6,77.9,75.0,89,80,68,29.91,29.80,21,4,21,0.00
2013-10-12,91.3,85.4,81.7,79.7,77.7,75.5,88,78,66,29.94,29.82,17,4,17,0.00
2013-10-13,90.7,84.2,79.8,79.8,76.9,73.3,89,79,68,29.96,29.84,21,3,21,0.07
2013-10-14,87.2,80.7,76.8,78.8,75.6,73.1,95,85,70,29.93,29.83,9,1,9,0.06
2013-10-15,89.2,81.6,76.2,78.9,76.4,74.4,95,85,69,29.93,29.81,17,2,17,0.00
2013-10-16,88.8,83.0,76.7,79.6,77.2,74.5,94,83,70,29.93,29.82,10,1,10,0.00
2013-10-17,92.3,84.9,80.1,80.4,77.9,75.0,90,80,64,29.94,29.81,14,2,14,0.00
2013-10-18,91.0,85.2,80.4,80.1,78.1,75.7,91,80,69,29.92,29.80,16,3,16,0.11
2013-10-19,91.2,85.1,78.4,79.7,78.4,75.4,93,81,67,29.91,29.78,16,4,16,0.00
2013-10-20,94.5,86.3,82.1,80.7,78.2,76.1,87,77,61,29.91,29.79,22,4,22,0.00
2013-10-21,88.7,84.7,78.9,78.6,77.2,74.8,90,78,66,29.93,29.79,23,5,23,0.00
2013-10-22,92.5,86.3,82.8,80.5,77.6,71.9,88,76,58,29.88,29.75,18,4,18,0.00
2013-10-23,92.5,86.0,81.7,79.7,77.8,74.6,85,77,62,29.87,29.75,18,4,18,0.00
2013-10-24,89.2,85.0,83.4,79.3,77.7,75.9,86,79,70,29.91,29.77,25,7,25,0.00
2013-10-25,89.0,84.3,78.9,79.3,77.5,73.7,90,80,68,29.94,29.82,22,6,22,0.00
2013-10-26,87.7,82.1,77.3,78.6,76.9,74.5,93,85,73,29.92,29.81,25,5,25,0.32
2013-10-27,81.7,80.9,79.4,77.6,77.0,76.2,91,88,85,29.87,29.81,21,10,21,0.00
2013-11-1,92.6,85.5,82.8,81.3,78.1,75.8,87,79,67,29.90,29.79,9,4,17,0.00
2013-11-2,90.9,85.4,79.8,80.2,78.2,75.6,88,79,71,29.90,29.79,5,3,14,0.00
2013-11-3,84.7,80.9,76.1,79.0,75.8,71.4,92,85,73,29.93,29.84,10,3,20,0.06
2013-11-4,82.6,79.0,75.5,75.2,73.6,72.5,92,84,74,29.97,29.87,8,3,18,0.02
2013-11-5,82.5,78.5,76.2,75.9,74.5,72.5,94,88,77,29.94,29.82,7,2,15,0.76
2013-11-6,83.7,79.6,75.3,77.2,75.8,73.8,97,88,77,29.91,29.82,11,5,21,3.41
2013-11-7,80.8,78.7,77.0,79.1,77.1,75.5,98,95,92,29.96,29.84,18,3,27,10.00
2013-11-8,80.3,77.8,75.2,78.4,76.4,74.2,98,96,90,29.92,29.80,24,4,24,6.38
2013-11-9,84.7,79.9,76.0,78.2,76.8,74.8,97,91,79,29.93,29.83,9,2,13,0.51
2013-11-10,85.0,79.7,75.9,78.9,76.7,74.4,97,91,80,29.98,29.85,5,2,12,0.61
2013-11-11,90.0,81.6,76.2,79.5,77.4,74.7,97,87,71,29.98,29.84,4,1,22,0.53
2013-11-12,88.2,83.1,76.2,79.3,77.7,73.7,97,84,72,29.96,29.82,9,2,19,0.26
2013-11-13,91.5,81.1,76.0,79.4,76.2,74.1,96,86,64,29.94,29.83,5,1,15,0.24
2013-11-14,83.4,80.6,76.6,78.7,77.0,75.2,96,89,81,29.94,29.84,13,2,13,0.09
2013-11-15,83.1,79.6,77.7,77.8,76.7,75.7,95,91,82,29.94,29.82,12,2,12,0.00
2013-11-21,86.1,82.2,78.2,77.5,76.0,74.0,91,82,71,29.98,29.87,6,3,14,0.02
2013-11-22,83.3,79.6,77.0,78.0,76.3,74.8,96,90,83,29.98,29.86,3,0,8,0.99
2013-11-23,87.9,80.3,77.5,77.8,76.1,74.3,93,87,72,29.97,29.85,3,1,12,0.03
2013-11-24,82.4,78.4,75.0,77.1,75.1,73.0,96,90,80,29.98,29.89,10,3,17,0.97
2013-11-25,83.0,78.6,75.5,77.3,75.4,73.7,95,90,83,29.98,29.86,7,3,15,0.06
2013-11-26,85.2,79.8,75.8,77.2,75.6,73.9,94,87,76,29.95,29.83,5,1,10,0.00
2013-11-27,78.8,74.1,69.7,76.3,68.9,64.4,98,84,68,30.17,29.86,24,6,26,4.36
2013-11-28,75.6,72.8,71.1,72.1,69.3,66.7,97,89,75,30.16,30.06,21,5,21,3.28
2013-11-29,72.8,70.5,68.3,71.9,69.7,67.4,98,97,96,30.14,30.02,24,8,28,11.45
2013-11-30,73.0,70.5,68.9,71.2,69.5,68.1,99,97,89,30.12,29.99,32,13,32,5.35
2013-12-1,77.4,74.3,72.0,73.6,71.7,70.1,95,92,86,30.05,29.96,28,10,28,0.19
2013-12-2,78.7,75.5,73.4,73.9,72.0,70.8,95,89,80,29.96,29.86,22,8,22,0.08
2013-12-3,85.6,81.0,72.3,78.5,75.8,70.8,95,85,72,29.93,29.78,19,4,19,0.00
2013-12-4,90.2,82.9,76.4,79.8,77.1,74.0,96,83,67,29.92,29.81,13,2,18,0.00
2013-12-5,85.5,82.7,80.3,77.9,75.8,72.4,90,80,70,29.97,29.85,11,7,23,0.00
2013-12-6,85.6,82.9,80.8,78.5,77.6,74.3,89,84,76,29.98,29.86,20,7,20,0.00
2013-12-7,84.0,81.0,74.8,78.2,75.8,72.8,95,85,73,30.03,29.92,22,5,22,0.68
2013-12-8,84.9,80.4,74.8,77.6,75.8,73.3,96,86,77,30.03,29.91,17,3,17,0.00
2013-12-9,84.5,80.8,79.0,76.3,75.4,74.7,88,84,75,30.02,29.94,12,4,12,0.00
2014-1-2,82.6,78.6,74.9,75.7,74.2,72.3,93,87,78,29.97,29.87,8,2,17,0.00